Tracking 28125 objects as of 4-Oct-2023
HD Live streaming from Space Station
objects crossing your sky now

STARLINK-3969

Track STARLINK-3969 now!
10-day predictions
STARLINK-3969 is classified as:


NORAD ID: 52551
Int'l Code: 2022-051U
Perigee: 545.7 km
Apogee: 548.1 km
Inclination: 53.2 °
Period: 95.4 minutes
Semi major axis: 6917 km
RCS: Unknown
Launch date: May 13, 2022
Source: United States (US)
Launch site: AIR FORCE WESTERN TEST RANGE (AFWTR)
Your satellite tracking list
Your tracking list is empty




NASA's NSSDC Master Catalog

Two Line Element Set (TLE):
1 52551U 22051U   23276.92385357  .00003877  00000-0  26158-3 0  9990
2 52551  53.2135 154.4585 0001667  82.4532 277.6650 15.08833446 77420
Source of the keplerian elements: AFSPC